| time (UTC) | temp F | wind direction | speed knots | gust knots | rain 1hr in | rain 24hr in | rain mn in | humidity % | barometer mb |
| 20260906101523 | 71 | 345 | 0.0 | 0.0 | 0.00 | 0.03 | 0.00 | 94 | 1011.7 |
| 20260906101018 | 71 | 345 | 0.0 | 0.0 | 0.00 | 0.03 | 0.00 | 94 | 1011.7 |
| 20260906100521 | 71 | 345 | 0.0 | 1.7 | 0.00 | 0.03 | 0.00 | 94 | 1011.6 |
| 20260906100119 | 71 | 345 | 0.0 | 1.7 | 0.00 | 0.03 | 0.00 | 93 | 1011.7 |
| 20260906095520 | 71 | 345 | 0.0 | 0.0 | 0.00 | 0.03 | 0.00 | 93 | 1011.7 |
| 20260906095018 | 71 | 345 | 0.0 | 0.0 | 0.00 | 0.03 | 0.00 | 93 | 1011.6 |
| 20260906094516 | 71 | 345 | 0.0 | 0.0 | 0.00 | 0.03 | 0.00 | 93 | 1011.6 |
| 20260906094015 | 72 | 345 | 0.0 | 0.0 | 0.00 | 0.03 | 0.00 | 93 | 1011.6 |
| 20260906093517 | 72 | 345 | 0.0 | 0.0 | 0.00 | 0.03 | 0.00 | 93 | 1011.8 |
| 20260906093015 | 72 | 345 | 0.0 | 0.0 | 0.00 | 0.03 | 0.00 | 93 | 1011.7 |
| 20260906092515 | 72 | 345 | 0.0 | 0.0 | 0.00 | 0.03 | 0.00 | 93 | 1011.6 |
| 20260906092017 | 72 | 345 | 0.0 | 0.0 | 0.00 | 0.03 | 0.00 | 93 | 1011.7 |
| 20260906091520 | 72 | 345 | 0.0 | 0.0 | 0.00 | 0.03 | 0.00 | 93 | 1011.7 |
| 20260906091014 | 72 | 345 | 0.0 | 0.0 | 0.00 | 0.03 | 0.00 | 93 | 1011.7 |
| 20260906090517 | 72 | 345 | 0.0 | 0.9 | 0.00 | 0.03 | 0.00 | 93 | 1011.6 |
| 20260906090016 | 72 | 345 | 0.0 | 0.9 | 0.00 | 0.03 | 0.00 | 93 | 1011.6 |
| 20260906085514 | 72 | 313 | 0.0 | 1.7 | 0.00 | 0.03 | 0.00 | 93 | 1011.6 |
| 20260906085013 | 72 | 222 | 0.0 | 1.7 | 0.00 | 0.03 | 0.00 | 93 | 1011.6 |
| 20260906084513 | 72 | 222 | 0.0 | 2.6 | 0.00 | 0.03 | 0.00 | 93 | 1011.5 |
| 20260906084013 | 72 | 213 | 0.0 | 2.6 | 0.00 | 0.03 | 0.00 | 93 | 1011.6 |
| 20260906083513 | 72 | 256 | 0.0 | 1.7 | 0.00 | 0.03 | 0.00 | 93 | 1011.5 |
| 20260906083012 | 72 | 256 | 0.0 | 0.9 | 0.00 | 0.03 | 0.00 | 93 | 1011.6 |
| 20260906082511 | 72 | 157 | 0.0 | 0.9 | 0.00 | 0.03 | 0.00 | 93 | 1011.6 |
| 20260906082011 | 72 | 161 | 0.0 | 0.9 | 0.00 | 0.03 | 0.00 | 93 | 1011.7 |
| 20260906081517 | 72 | 67 | 0.0 | 0.9 | 0.00 | 0.03 | 0.00 | 93 | 1011.7 |
| 20260906081013 | 72 | 67 | 0.0 | 0.9 | 0.00 | 0.03 | 0.00 | 93 | 1011.7 |
| 20260906080511 | 72 | 67 | 0.0 | 0.9 | 0.00 | 0.03 | 0.00 | 93 | 1011.8 |
| 20260906080014 | 72 | 67 | 0.0 | 0.9 | 0.00 | 0.03 | 0.00 | 93 | 1011.7 |
| 20260906075510 | 72 | 67 | 0.0 | 0.0 | 0.00 | 0.03 | 0.00 | 93 | 1011.6 |
| 20260906075013 | 72 | 67 | 0.0 | 0.0 | 0.00 | 0.03 | 0.00 | 93 | 1011.5 |
| 20260906074512 | 72 | 67 | 0.0 | 0.0 | 0.00 | 0.03 | 0.00 | 93 | 1011.5 |
| 20260906074009 | 72 | 67 | 0.0 | 0.0 | 0.00 | 0.03 | 0.00 | 93 | 1011.4 |
| 20260906073508 | 72 | 67 | 0.0 | 0.0 | 0.00 | 0.03 | 0.00 | 93 | 1011.3 |
| 20260906073008 | 72 | 67 | 0.0 | 0.0 | 0.00 | 0.03 | 0.00 | 93 | 1011.3 |
| 20260906072508 | 72 | 67 | 0.0 | 0.0 | 0.00 | 0.03 | 0.00 | 93 | 1011.3 |
| 20260906072008 | 73 | 67 | 0.0 | 0.0 | 0.00 | 0.03 | 0.00 | 93 | 1011.1 |
| 20260906071510 | 73 | 67 | 0.0 | 0.0 | 0.00 | 0.03 | 0.00 | 93 | 1011.1 |
| 20260906071008 | 73 | 67 | 0.0 | 0.0 | 0.00 | 0.03 | 0.00 | 93 | 1011.0 |
| 20260906070510 | 73 | 67 | 0.0 | 0.0 | 0.00 | 0.03 | 0.00 | 93 | 1011.1 |
| 20260906070007 | 73 | 67 | 0.0 | 0.0 | 0.00 | 0.03 | 0.00 | 93 | 1011.1 |
| 20260906065507 | 73 | 67 | 0.0 | 0.0 | 0.00 | 0.03 | 0.00 | 93 | 1011.1 |
| 20260906065007 | 73 | 67 | 0.0 | 0.0 | 0.00 | 0.03 | 0.00 | 93 | 1011.1 |
| 20260906064506 | 73 | 67 | 0.0 | 0.9 | 0.00 | 0.03 | 0.00 | 93 | 1011.1 |
| 20260906064006 | 73 | 67 | 0.0 | 0.9 | 0.00 | 0.03 | 0.00 | 93 | 1011.1 |
| 20260906063509 | 73 | 67 | 0.0 | 0.9 | 0.00 | 0.03 | 0.00 | 93 | 1011.2 |
| 20260906063006 | 73 | 67 | 0.0 | 0.0 | 0.00 | 0.03 | 0.00 | 93 | 1011.2 |
| 20260906062505 | 73 | 67 | 0.0 | 0.0 | 0.00 | 0.03 | 0.00 | 93 | 1011.1 |
| 20260906062010 | 73 | 67 | 0.0 | 0.0 | 0.00 | 0.03 | 0.00 | 93 | 1011.0 |
| 20260906061505 | 73 | 67 | 0.0 | 0.0 | 0.00 | 0.03 | 0.00 | 93 | 1011.1 |
| 20260906061004 | 73 | 67 | 0.0 | 0.0 | 0.00 | 0.03 | 0.00 | 93 | 1011.2 |
| 20260906060504 | 73 | 67 | 0.0 | 0.0 | 0.00 | 0.03 | 0.00 | 93 | 1011.0 |
| 20260906060003 | 73 | 67 | 0.0 | 0.0 | 0.00 | 0.03 | 0.00 | 93 | 1011.2 |
| 20260906055503 | 73 | 67 | 0.0 | 0.0 | 0.00 | 0.03 | 0.00 | 93 | 1011.3 |
| 20260906055002 | 73 | 67 | 0.0 | 0.0 | 0.00 | 0.03 | 0.00 | 93 | 1011.4 |
| 20260906054607 | 73 | 67 | 0.0 | 0.0 | 0.00 | 0.03 | 0.00 | 92 | 1011.4 |
| 20260906054100 | 73 | 67 | 0.0 | 0.0 | 0.00 | 0.03 | 0.00 | 92 | 1011.5 |
| 20260906053559 | 73 | 67 | 0.0 | 0.0 | 0.00 | 0.03 | 0.00 | 92 | 1011.6 |
| 20260906053102 | 73 | 67 | 0.0 | 0.0 | 0.00 | 0.03 | 0.00 | 92 | 1011.7 |
| 20260906052559 | 74 | 67 | 0.0 | 0.0 | 0.00 | 0.03 | 0.00 | 92 | 1011.8 |
| 20260906052059 | 74 | 67 | 0.0 | 0.0 | 0.00 | 0.03 | 0.00 | 92 | 1011.7 |
| 20260906051611 | 74 | 67 | 0.0 | 0.9 | 0.00 | 0.03 | 0.00 | 92 | 1011.7 |
| 20260906051057 | 74 | 67 | 0.0 | 0.9 | 0.00 | 0.03 | 0.00 | 92 | 1011.8 |
| 20260906050556 | 74 | 67 | 0.0 | 0.9 | 0.00 | 0.03 | 0.00 | 92 | 1011.8 |
| 20260906050056 | 74 | 67 | 0.0 | 0.9 | 0.00 | 0.03 | 0.00 | 92 | 1011.9 |
| 20260906045557 | 74 | 67 | 0.0 | 0.9 | 0.00 | 0.03 | 0.00 | 92 | 1011.9 |
| 20260906045058 | 74 | 67 | 0.0 | 0.0 | 0.00 | 0.03 | 0.00 | 92 | 1012.0 |
| 20260906044603 | 74 | 67 | 0.0 | 0.0 | 0.00 | 0.03 | 0.00 | 92 | 1012.1 |
| 20260906044053 | 74 | 67 | 0.0 | 0.9 | 0.00 | 0.03 | 0.00 | 92 | 1012.1 |
| 20260906043553 | 74 | 67 | 0.0 | 0.0 | 0.00 | 0.03 | 0.00 | 92 | 1012.2 |
| 20260906043052 | 74 | 67 | 0.0 | 0.0 | 0.00 | 0.03 | 0.00 | 92 | 1012.3 |
| 20260906042553 | 74 | 67 | 0.0 | 0.0 | 0.00 | 0.03 | 0.00 | 92 | 1012.2 |
| 20260906042052 | 74 | 67 | 0.0 | 0.0 | 0.00 | 0.03 | 0.00 | 92 | 1012.3 |
| 20260906041552 | 74 | 67 | 0.0 | 0.0 | 0.00 | 0.03 | 0.00 | 92 | 1012.4 |
| 20260906041051 | 74 | 67 | 0.0 | 0.0 | 0.00 | 0.03 | 0.00 | 92 | 1012.3 |
| 20260906040549 | 75 | 67 | 0.0 | 0.0 | 0.00 | 0.03 | 0.00 | 92 | 1012.3 |
| 20260906040124 | 75 | 67 | 0.0 | 0.0 | 0.00 | 0.03 | 0.00 | 92 | 1012.3 |
| 20260906035548 | 75 | 67 | 0.0 | 0.0 | 0.00 | 0.03 | 0.03 | 92 | 1012.3 |
| 20260906035048 | 75 | 67 | 0.0 | 0.0 | 0.00 | 0.03 | 0.03 | 92 | 1012.2 |
| 20260906034601 | 75 | 67 | 0.0 | 0.0 | 0.00 | 0.03 | 0.03 | 91 | 1012.2 |
| 20260906034047 | 75 | 67 | 0.0 | 0.0 | 0.00 | 0.03 | 0.03 | 91 | 1012.1 |
| 20260906033549 | 75 | 67 | 0.0 | 0.0 | 0.00 | 0.03 | 0.03 | 91 | 1012.0 |
| 20260906033102 | 75 | 67 | 0.0 | 0.0 | 0.00 | 0.03 | 0.03 | 91 | 1012.1 |
| 20260906032547 | 75 | 67 | 0.0 | 0.0 | 0.00 | 0.03 | 0.03 | 91 | 1012.2 |
| 20260906032047 | 75 | 67 | 0.0 | 0.0 | 0.00 | 0.03 | 0.03 | 91 | 1012.1 |
| 20260906031549 | 75 | 67 | 0.0 | 0.0 | 0.00 | 0.03 | 0.03 | 91 | 1012.0 |
| 20260906031047 | 75 | 67 | 0.0 | 0.0 | 0.00 | 0.03 | 0.03 | 91 | 1012.0 |
| 20260906030548 | 75 | 67 | 0.0 | 0.0 | 0.00 | 0.03 | 0.03 | 91 | 1012.0 |
| 20260906030047 | 75 | 67 | 0.0 | 0.0 | 0.00 | 0.03 | 0.03 | 91 | 1011.9 |
| 20260906025546 | 75 | 67 | 0.0 | 0.0 | 0.00 | 0.03 | 0.03 | 91 | 1011.9 |
| 20260906025048 | 75 | 67 | 0.0 | 0.0 | 0.00 | 0.03 | 0.03 | 90 | 1011.9 |
| 20260906024554 | 76 | 67 | 0.0 | 0.0 | 0.00 | 0.03 | 0.03 | 90 | 1011.7 |
| 20260906024046 | 76 | 67 | 0.0 | 0.0 | 0.00 | 0.03 | 0.03 | 90 | 1011.6 |
| 20260906023546 | 76 | 67 | 0.0 | 0.0 | 0.00 | 0.03 | 0.03 | 90 | 1011.6 |
| 20260906023052 | 76 | 67 | 0.0 | 0.0 | 0.00 | 0.03 | 0.03 | 90 | 1011.5 |
| 20260906022545 | 76 | 67 | 0.0 | 0.0 | 0.00 | 0.03 | 0.03 | 89 | 1011.4 |
| 20260906022046 | 76 | 67 | 0.0 | 0.0 | 0.00 | 0.03 | 0.03 | 89 | 1011.5 |
| 20260906021546 | 76 | 67 | 0.0 | 0.0 | 0.00 | 0.03 | 0.03 | 89 | 1011.5 |
| 20260906021045 | 76 | 67 | 0.0 | 0.0 | 0.00 | 0.03 | 0.03 | 89 | 1011.5 |
| 20260906020545 | 76 | 67 | 0.0 | 0.0 | 0.00 | 0.03 | 0.03 | 89 | 1011.5 |
| 20260906020045 | 76 | 67 | 0.0 | 1.7 | 0.00 | 0.03 | 0.03 | 89 | 1011.4 |
| 20260906015546 | 77 | 67 | 0.0 | 2.6 | 0.00 | 0.03 | 0.03 | 89 | 1011.3 |
| 20260906015045 | 77 | 119 | 0.0 | 2.6 | 0.00 | 0.03 | 0.03 | 88 | 1011.4 |
| 20260906014545 | 77 | 96 | 0.0 | 1.7 | 0.00 | 0.03 | 0.03 | 88 | 1011.5 |
| 20260906014045 | 77 | 94 | 0.0 | 0.9 | 0.00 | 0.03 | 0.03 | 88 | 1011.5 |
| 20260906013544 | 77 | 96 | 0.0 | 0.0 | 0.00 | 0.03 | 0.03 | 88 | 1011.5 |
| 20260906013044 | 77 | 96 | 0.0 | 0.9 | 0.00 | 0.03 | 0.03 | 87 | 1011.4 |
| 20260906012544 | 77 | 96 | 0.0 | 2.6 | 0.00 | 0.03 | 0.03 | 87 | 1011.3 |
| 20260906012043 | 77 | 95 | 0.0 | 2.6 | 0.00 | 0.03 | 0.03 | 87 | 1011.2 |
| 20260906011544 | 77 | 236 | 0.0 | 0.9 | 0.00 | 0.03 | 0.03 | 87 | 1011.0 |
| 20260906011044 | 77 | 240 | 0.0 | 2.6 | 0.00 | 0.03 | 0.03 | 87 | 1011.0 |
| 20260906010545 | 77 | 240 | 0.0 | 2.6 | 0.00 | 0.03 | 0.03 | 86 | 1010.8 |
| 20260906010044 | 78 | 235 | 0.0 | 2.6 | 0.00 | 0.03 | 0.03 | 86 | 1010.9 |
| 20260906005547 | 78 | 262 | 0.0 | 1.7 | 0.00 | 0.03 | 0.03 | 87 | 1011.1 |
| 20260906005044 | 78 | 264 | 0.9 | 1.7 | 0.00 | 0.03 | 0.03 | 86 | 1011.0 |
| 20260906004543 | 78 | 263 | 0.0 | 0.9 | 0.00 | 0.03 | 0.03 | 86 | 1011.0 |
| 20260906004042 | 78 | 263 | 0.0 | 0.9 | 0.00 | 0.03 | 0.03 | 86 | 1011.1 |
| 20260906003545 | 78 | 263 | 0.0 | 0.0 | 0.00 | 0.03 | 0.03 | 85 | 1011.1 |
| 20260906003042 | 78 | 264 | 0.0 | 0.0 | 0.00 | 0.03 | 0.03 | 85 | 1011.0 |
| 20260906002545 | 79 | 264 | 0.0 | 0.0 | 0.00 | 0.03 | 0.03 | 85 | 1011.1 |
| 20260906002043 | 79 | 264 | 0.0 | 0.0 | 0.00 | 0.03 | 0.03 | 84 | 1011.0 |
| 20260906001542 | 79 | 264 | 0.0 | 0.9 | 0.00 | 0.03 | 0.03 | 84 | 1011.0 |
| 20260906001043 | 79 | 264 | 0.0 | 1.7 | 0.00 | 0.03 | 0.03 | 84 | 1010.9 |
| 20260906000541 | 80 | 207 | 0.0 | 0.0 | 0.00 | 0.03 | 0.03 | 83 | 1011.0 |
| 20260906000041 | 80 | 207 | 0.0 | 0.0 | 0.00 | 0.03 | 0.03 | 83 | 1011.0 |
| 20260905235543 | 80 | 207 | 0.0 | 1.7 | 0.00 | 0.03 | 0.03 | 83 | 1010.9 |
| 20260905235040 | 80 | 207 | 0.0 | 1.7 | 0.00 | 0.03 | 0.03 | 82 | 1010.8 |
| 20260905234540 | 80 | 178 | 0.0 | 1.7 | 0.00 | 0.03 | 0.03 | 82 | 1010.8 |
| 20260905234039 | 81 | 207 | 0.0 | 0.9 | 0.00 | 0.03 | 0.03 | 82 | 1010.9 |
| 20260905233539 | 81 | 207 | 0.0 | 1.7 | 0.00 | 0.03 | 0.03 | 82 | 1010.8 |
| 20260905233044 | 81 | 219 | 0.0 | 2.6 | 0.00 | 0.03 | 0.03 | 81 | 1010.8 |
| 20260905232539 | 81 | 343 | 0.0 | 1.7 | 0.00 | 0.03 | 0.03 | 81 | 1010.7 |
| 20260905232039 | 82 | 5 | 0.0 | 1.7 | 0.00 | 0.03 | 0.03 | 81 | 1010.7 |
| 20260905231539 | 82 | 219 | 0.0 | 1.7 | 0.00 | 0.03 | 0.03 | 80 | 1010.7 |
| 20260905231038 | 82 | 222 | 0.0 | 4.3 | 0.00 | 0.03 | 0.03 | 81 | 1010.8 |
| 20260905230537 | 82 | 234 | 1.7 | 4.3 | 0.00 | 0.03 | 0.03 | 79 | 1010.7 |
| 20260905230038 | 83 | 280 | 1.7 | 3.5 | 0.00 | 0.03 | 0.03 | 81 | 1010.7 |
| 20260905225537 | 83 | 281 | 0.9 | 2.6 | 0.00 | 0.03 | 0.03 | 82 | 1010.7 |
| 20260905225037 | 83 | 259 | 0.0 | 2.6 | 0.00 | 0.03 | 0.03 | 82 | 1010.7 |
| 20260905224607 | 84 | 225 | 0.0 | 1.7 | 0.00 | 0.03 | 0.03 | 81 | 1010.5 |
| 20260905224036 | 84 | 220 | 0.0 | 4.3 | 0.00 | 0.03 | 0.03 | 82 | 1010.5 |
| 20260905223536 | 84 | 242 | 1.7 | 4.3 | 0.00 | 0.03 | 0.03 | 81 | 1010.4 |
| 20260905223043 | 84 | 190 | 0.0 | 2.6 | 0.00 | 0.03 | 0.03 | 80 | 1010.4 |
| 20260905222536 | 84 | 219 | 0.0 | 2.6 | 0.00 | 0.03 | 0.03 | 80 | 1010.3 |
| 20260905222039 | 85 | 203 | 0.9 | 2.6 | 0.00 | 0.03 | 0.03 | 80 | 1010.4 |
| 20260905221536 | 85 | 238 | 0.9 | 5.2 | 0.00 | 0.03 | 0.03 | 80 | 1010.3 |
| 20260905221035 | 85 | 238 | 0.9 | 5.2 | 0.00 | 0.03 | 0.03 | 81 | 1010.4 |
| 20260905220534 | 85 | 240 | 0.9 | 3.5 | 0.00 | 0.03 | 0.03 | 81 | 1010.4 |
| 20260905220034 | 85 | 239 | 0.9 | 3.5 | 0.00 | 0.03 | 0.03 | 81 | 1010.5 |
| 20260905215533 | 86 | 224 | 0.0 | 3.5 | 0.00 | 0.03 | 0.03 | 81 | 1010.6 |
| 20260905215032 | 86 | 285 | 0.9 | 5.2 | 0.00 | 0.03 | 0.03 | 81 | 1010.7 |
| 20260905214536 | 86 | 263 | 0.9 | 5.2 | 0.00 | 0.03 | 0.03 | 81 | 1010.7 |
| 20260905214032 | 86 | 238 | 1.7 | 3.5 | 0.00 | 0.03 | 0.03 | 81 | 1010.9 |
| 20260905213532 | 86 | 234 | 0.9 | 3.5 | 0.00 | 0.03 | 0.03 | 81 | 1010.9 |
| 20260905213033 | 86 | 264 | 0.9 | 3.5 | 0.00 | 0.03 | 0.03 | 80 | 1010.8 |
| 20260905212536 | 87 | 221 | 1.7 | 3.5 | 0.00 | 0.03 | 0.03 | 80 | 1010.9 |
| 20260905212031 | 87 | 283 | 0.0 | 3.5 | 0.00 | 0.03 | 0.03 | 81 | 1010.9 |
| 20260905211542 | 87 | 261 | 0.0 | 2.6 | 0.00 | 0.03 | 0.03 | 80 | 1010.8 |
| 20260905211032 | 87 | 255 | 0.9 | 2.6 | 0.00 | 0.03 | 0.03 | 78 | 1010.7 |
| 20260905210533 | 87 | 246 | 0.0 | 2.6 | 0.00 | 0.03 | 0.03 | 78 | 1010.8 |
| 20260905210040 | 87 | 243 | 0.9 | 2.6 | 0.00 | 0.03 | 0.03 | 77 | 1010.8 |
| 20260905205530 | 88 | 138 | 0.0 | 1.7 | 0.00 | 0.03 | 0.03 | 77 | 1010.9 |
| 20260905205030 | 88 | 100 | 0.0 | 2.6 | 0.00 | 0.03 | 0.03 | 76 | 1010.9 |
| 20260905204530 | 88 | 206 | 0.0 | 2.6 | 0.00 | 0.03 | 0.03 | 78 | 1011.0 |
| 20260905204029 | 88 | 232 | 0.0 | 1.7 | 0.00 | 0.03 | 0.03 | 78 | 1011.1 |
| 20260905203528 | 88 | 232 | 0.0 | 1.7 | 0.00 | 0.03 | 0.03 | 77 | 1011.0 |
| 20260905203027 | 88 | 75 | 0.0 | 1.7 | 0.00 | 0.03 | 0.03 | 78 | 1011.2 |
| 20260905202527 | 87 | 76 | 0.0 | 2.6 | 0.00 | 0.03 | 0.03 | 80 | 1011.4 |
| 20260905202026 | 87 | 110 | 0.0 | 2.6 | 0.00 | 0.03 | 0.03 | 83 | 1011.4 |
| 20260905201526 | 85 | 234 | 0.9 | 2.6 | 0.00 | 0.03 | 0.03 | 85 | 1011.4 |
| 20260905201025 | 84 | 273 | 0.0 | 1.7 | 0.00 | 0.03 | 0.03 | 86 | 1011.5 |
| 20260905200527 | 83 | 275 | 0.0 | 2.6 | 0.00 | 0.03 | 0.03 | 87 | 1011.4 |
| 20260905200027 | 82 | 275 | 0.9 | 2.6 | 0.00 | 0.03 | 0.03 | 88 | 1011.6 |
| 20260905195523 | 81 | 215 | 0.0 | 2.6 | 0.00 | 0.03 | 0.03 | 89 | 1011.6 |
| 20260905195028 | 81 | 139 | 0.0 | 2.6 | 0.00 | 0.03 | 0.03 | 89 | 1011.6 |
| 20260905194523 | 80 | 24 | 0.0 | 0.9 | 0.00 | 0.03 | 0.03 | 91 | 1011.7 |
| 20260905194022 | 79 | 9 | 0.0 | 0.9 | 0.00 | 0.03 | 0.03 | 92 | 1011.7 |
| 20260905193522 | 79 | 9 | 0.0 | 0.9 | 0.00 | 0.03 | 0.03 | 92 | 1011.9 |
| 20260905193021 | 79 | 9 | 0.0 | 0.9 | 0.00 | 0.03 | 0.03 | 92 | 1012.0 |
| 20260905192521 | 78 | 10 | 0.0 | 0.9 | 0.00 | 0.03 | 0.03 | 91 | 1012.0 |
| 20260905192021 | 78 | 10 | 0.0 | 0.9 | 0.00 | 0.03 | 0.03 | 91 | 1012.0 |
| 20260905191520 | 78 | 9 | 0.0 | 0.0 | 0.00 | 0.03 | 0.03 | 92 | 1012.1 |
| 20260905191020 | 78 | 9 | 0.0 | 0.0 | 0.00 | 0.03 | 0.03 | 92 | 1012.2 |
| 20260905190519 | 78 | 9 | 0.0 | 0.0 | 0.00 | 0.03 | 0.03 | 92 | 1012.3 |
| 20260905190019 | 78 | 9 | 0.0 | 0.0 | 0.00 | 0.03 | 0.03 | 91 | 1012.3 |
| 20260905185518 | 78 | 9 | 0.0 | 0.9 | 0.01 | 0.03 | 0.03 | 91 | 1012.3 |
| 20260905185018 | 78 | 10 | 0.0 | 0.9 | 0.02 | 0.03 | 0.03 | 91 | 1012.3 |
| 20260905184527 | 79 | 9 | 0.0 | 0.0 | 0.03 | 0.03 | 0.03 | 91 | 1012.4 |
| 20260905184017 | 79 | 9 | 0.0 | 0.0 | 0.03 | 0.03 | 0.03 | 90 | 1012.4 |
| 20260905183518 | 79 | 9 | 0.0 | 0.0 | 0.03 | 0.03 | 0.03 | 90 | 1012.2 |
| 20260905183017 | 79 | 9 | 0.0 | 0.0 | 0.03 | 0.03 | 0.03 | 90 | 1012.2 |
| 20260905182515 | 80 | 9 | 0.0 | 0.0 | 0.03 | 0.03 | 0.03 | 89 | 1012.4 |
| 20260905182015 | 80 | 9 | 0.0 | 0.9 | 0.03 | 0.03 | 0.03 | 88 | 1012.6 |
| 20260905181517 | 81 | 10 | 0.0 | 0.9 | 0.03 | 0.03 | 0.03 | 86 | 1012.5 |
| 20260905181014 | 83 | 10 | 0.0 | 1.7 | 0.03 | 0.03 | 0.03 | 84 | 1012.4 |
| 20260905180518 | 84 | 10 | 0.0 | 1.7 | 0.03 | 0.03 | 0.03 | 81 | 1012.4 |
| 20260905180014 | 85 | 11 | 0.0 | 1.7 | 0.03 | 0.03 | 0.03 | 78 | 1012.6 |
| 20260905175516 | 88 | 43 | 0.0 | 7.0 | 0.02 | 0.02 | 0.02 | 75 | 1012.8 |
| 20260905175014 | 90 | 286 | 0.9 | 8.7 | 0.01 | 0.01 | 0.01 | 69 | 1012.6 |
| 20260905174513 | 92 | 339 | 0.9 | 10.4 | 0.00 | 0.00 | 0.00 | 65 | 1012.5 |
| 20260905174013 | 93 | 318 | 1.7 | 8.7 | 0.00 | 0.00 | 0.00 | 61 | 1012.6 |
| 20260905173513 | 94 | 349 | 0.9 | 7.8 | 0.00 | 0.00 | 0.00 | 59 | 1012.6 |
| 20260905173012 | 95 | 175 | 1.7 | 7.8 | 0.00 | 0.00 | 0.00 | 60 | 1012.7 |
| 20260905172513 | 95 | 355 | 0.9 | 3.5 | 0.00 | 0.00 | 0.00 | 59 | 1012.6 |
| 20260905172014 | 95 | 94 | 0.9 | 3.5 | 0.00 | 0.00 | 0.00 | 59 | 1012.4 |
| 20260905171511 | 95 | 79 | 0.9 | 3.5 | 0.00 | 0.00 | 0.00 | 63 | 1012.3 |
| 20260905171009 | 94 | 82 | 0.0 | 6.1 | 0.00 | 0.00 | 0.00 | 61 | 1012.4 |
| 20260905170609 | 94 | 93 | 0.9 | 6.1 | 0.00 | 0.00 | 0.00 | 61 | 1012.6 |
| 20260905170009 | 94 | 51 | 0.0 | 3.5 | 0.00 | 0.00 | 0.00 | 64 | 1012.6 |
| 20260905165506 | 94 | 21 | 0.9 | 3.5 | 0.00 | 0.00 | 0.00 | 66 | 1012.8 |
| 20260905165007 | 93 | 150 | 0.0 | 2.6 | 0.00 | 0.00 | 0.00 | 65 | 1013.1 |
| 20260905164507 | 93 | 160 | 0.0 | 2.6 | 0.00 | 0.00 | 0.00 | 65 | 1013.2 |
| 20260905164003 | 92 | 332 | 0.0 | 2.6 | 0.00 | 0.00 | 0.00 | 67 | 1013.1 |
| 20260905163502 | 92 | 350 | 0.9 | 3.5 | 0.00 | 0.00 | 0.00 | 66 | 1013.1 |
| 20260905163002 | 92 | 355 | 0.9 | 3.5 | 0.00 | 0.00 | 0.00 | 66 | 1013.2 |
| 20260905162604 | 92 | 342 | 0.0 | 2.6 | 0.00 | 0.00 | 0.00 | 66 | 1013.3 |
| 20260905162059 | 91 | 71 | 0.0 | 2.6 | 0.00 | 0.00 | 0.00 | 70 | 1013.3 |
| 20260905161609 | 91 | 92 | 0.0 | 2.6 | 0.00 | 0.00 | 0.00 | 70 | 1013.3 |
| 20260905161058 | 90 | 182 | 0.0 | 0.9 | 0.00 | 0.00 | 0.00 | 70 | 1013.2 |
| 20260905160557 | 90 | 182 | 0.0 | 1.7 | 0.00 | 0.00 | 0.00 | 68 | 1013.2 |
| 20260905160057 | 91 | 182 | 0.0 | 2.6 | 0.00 | 0.00 | 0.00 | 70 | 1013.3 |
| 20260905155556 | 90 | 349 | 0.0 | 2.6 | 0.00 | 0.00 | 0.00 | 70 | 1013.4 |
| 20260905155054 | 90 | 10 | 0.0 | 1.7 | 0.00 | 0.00 | 0.00 | 68 | 1013.4 |
| 20260905154559 | 90 | 230 | 0.9 | 3.5 | 0.00 | 0.00 | 0.00 | 70 | 1013.3 |
| 20260905154050 | 90 | 246 | 0.0 | 3.5 | 0.00 | 0.00 | 0.00 | 72 | 1013.4 |
| 20260905153551 | 89 | 79 | 0.0 | 2.6 | 0.00 | 0.00 | 0.00 | 73 | 1013.4 |
| 20260905153051 | 89 | 83 | 0.0 | 2.6 | 0.00 | 0.00 | 0.00 | 74 | 1013.4 |
| 20260905152547 | 88 | 5 | 0.0 | 1.7 | 0.00 | 0.00 | 0.00 | 73 | 1013.4 |
| 20260905152046 | 88 | 232 | 0.9 | 2.6 | 0.00 | 0.00 | 0.00 | 77 | 1013.4 |
| 20260905151545 | 87 | 205 | 0.0 | 2.6 | 0.00 | 0.00 | 0.00 | 76 | 1013.3 |
| 20260905151044 | 87 | 85 | 0.0 | 2.6 | 0.00 | 0.00 | 0.00 | 77 | 1013.4 |
| 20260905150543 | 86 | 252 | 0.9 | 2.6 | 0.00 | 0.00 | 0.00 | 76 | 1013.5 |
| 20260905150043 | 86 | 201 | 0.0 | 2.6 | 0.00 | 0.00 | 0.00 | 78 | 1013.5 |
| 20260905145542 | 86 | 9 | 0.0 | 1.7 | 0.00 | 0.00 | 0.00 | 76 | 1013.6 |
| 20260905145041 | 86 | 9 | 0.9 | 1.7 | 0.00 | 0.00 | 0.00 | 78 | 1013.6 |
| 20260905144540 | 85 | 97 | 0.0 | 1.7 | 0.00 | 0.00 | 0.00 | 80 | 1013.6 |
| 20260905144038 | 85 | 101 | 0.0 | 0.9 | 0.00 | 0.00 | 0.00 | 80 | 1013.7 |
| 20260905143537 | 84 | 123 | 0.0 | 1.7 | 0.00 | 0.00 | 0.00 | 80 | 1013.7 |
| 20260905143036 | 83 | 138 | 0.0 | 1.7 | 0.00 | 0.00 | 0.00 | 83 | 1013.8 |
| 20260905142534 | 83 | 95 | 0.0 | 2.6 | 0.00 | 0.00 | 0.00 | 84 | 1013.8 |
| 20260905142032 | 82 | 109 | 0.0 | 2.6 | 0.00 | 0.00 | 0.00 | 83 | 1013.8 |
| 20260905141531 | 82 | 109 | 0.0 | 0.9 | 0.00 | 0.00 | 0.00 | 85 | 1013.9 |
| 20260905141029 | 82 | 108 | 0.0 | 1.7 | 0.00 | 0.00 | 0.00 | 85 | 1013.9 |
| 20260905140528 | 81 | 109 | 0.0 | 2.6 | 0.00 | 0.00 | 0.00 | 86 | 1013.9 |
| 20260905140027 | 81 | 152 | 0.0 | 2.6 | 0.00 | 0.00 | 0.00 | 87 | 1013.9 |
| 20260905135526 | 80 | 142 | 0.0 | 1.7 | 0.00 | 0.00 | 0.00 | 86 | 1014.0 |
| 20260905135025 | 80 | 148 | 0.0 | 0.9 | 0.00 | 0.00 | 0.00 | 87 | 1014.0 |
| 20260905134524 | 80 | 219 | 0.0 | 0.9 | 0.00 | 0.00 | 0.00 | 88 | 1014.1 |
| 20260905134022 | 79 | 219 | 0.0 | 0.9 | 0.00 | 0.00 | 0.00 | 89 | 1014.1 |
| 20260905133520 | 79 | 219 | 0.0 | 0.9 | 0.00 | 0.00 | 0.00 | 89 | 1014.2 |
| 20260905133031 | 78 | 219 | 0.0 | 1.7 | 0.00 | 0.00 | 0.00 | 89 | 1014.3 |
| 20260905132520 | 78 | 178 | 0.0 | 1.7 | 0.00 | 0.00 | 0.00 | 90 | 1014.3 |
| 20260905132020 | 77 | 14 | 0.0 | 1.7 | 0.00 | 0.00 | 0.00 | 90 | 1014.4 |
| 20260905131525 | 77 | 209 | 0.0 | 1.7 | 0.00 | 0.00 | 0.00 | 91 | 1014.4 |
| 20260905131021 | 77 | 170 | 0.0 | 0.0 | 0.00 | 0.00 | 0.00 | 92 | 1014.5 |
| 20260905130519 | 76 | 170 | 0.0 | 0.9 | 0.00 | 0.00 | 0.00 | 93 | 1014.5 |
| 20260905130117 | 76 | 170 | 0.0 | 0.9 | 0.00 | 0.00 | 0.00 | 93 | 1014.4 |
| 20260905125519 | 75 | 171 | 0.0 | 0.0 | 0.00 | 0.00 | 0.00 | 93 | 1014.4 |
| 20260905125014 | 75 | 171 | 0.0 | 1.7 | 0.00 | 0.00 | 0.00 | 93 | 1014.5 |
| 20260905124513 | 75 | 171 | 0.0 | 0.9 | 0.00 | 0.00 | 0.00 | 93 | 1014.5 |
| 20260905124012 | 74 | 103 | 0.0 | 1.7 | 0.00 | 0.00 | 0.00 | 93 | 1014.5 |
| 20260905123511 | 74 | 102 | 0.0 | 1.7 | 0.00 | 0.00 | 0.00 | 93 | 1014.5 |
| 20260905123011 | 74 | 80 | 0.0 | 0.0 | 0.00 | 0.00 | 0.00 | 94 | 1014.4 |
| 20260905122510 | 74 | 79 | 0.0 | 0.0 | 0.00 | 0.00 | 0.00 | 94 | 1014.4 |
| 20260905122010 | 74 | 79 | 0.0 | 0.0 | 0.00 | 0.00 | 0.00 | 94 | 1014.4 |
| 20260905121509 | 73 | 79 | 0.0 | 0.0 | 0.00 | 0.00 | 0.00 | 94 | 1014.4 |
| 20260905121011 | 73 | 79 | 0.0 | 0.0 | 0.00 | 0.00 | 0.00 | 94 | 1014.3 |
| 20260905120510 | 73 | 79 | 0.0 | 0.0 | 0.00 | 0.00 | 0.00 | 94 | 1014.3 |
| 20260905120007 | 73 | 79 | 0.0 | 0.0 | 0.00 | 0.00 | 0.00 | 94 | 1014.2 |
| 20260905115506 | 73 | 79 | 0.0 | 0.0 | 0.00 | 0.00 | 0.00 | 94 | 1014.2 |
| 20260905115009 | 73 | 79 | 0.0 | 0.0 | 0.00 | 0.00 | 0.00 | 94 | 1014.0 |
| 20260905114504 | 73 | 79 | 0.0 | 0.0 | 0.00 | 0.00 | 0.00 | 94 | 1013.9 |
| 20260905114004 | 73 | 79 | 0.0 | 0.0 | 0.00 | 0.00 | 0.00 | 93 | 1013.8 |
| 20260905113502 | 73 | 79 | 0.0 | 0.0 | 0.00 | 0.00 | 0.00 | 93 | 1013.7 |
| 20260905113001 | 73 | 79 | 0.0 | 0.0 | 0.00 | 0.00 | 0.00 | 93 | 1013.6 |
| 20260905112502 | 73 | 79 | 0.0 | 0.0 | 0.00 | 0.00 | 0.00 | 93 | 1013.6 |
| 20260905112000 | 73 | 79 | 0.0 | 0.0 | 0.00 | 0.00 | 0.00 | 93 | 1013.5 |
| 20260905111559 | 73 | 79 | 0.0 | 0.0 | 0.00 | 0.00 | 0.00 | 93 | 1013.5 |
| 20260905111100 | 73 | 79 | 0.0 | 0.0 | 0.00 | 0.00 | 0.00 | 93 | 1013.3 |
| 20260905110600 | 73 | 79 | 0.0 | 0.0 | 0.00 | 0.00 | 0.00 | 93 | 1013.4 |
| 20260905110100 | 73 | 79 | 0.0 | 0.0 | 0.00 | 0.00 | 0.00 | 93 | 1013.3 |
| 20260905105559 | 73 | 79 | 0.0 | 0.0 | 0.00 | 0.00 | 0.00 | 93 | 1013.3 |
| 20260905105103 | 73 | 79 | 0.0 | 0.0 | 0.00 | 0.00 | 0.00 | 93 | 1013.2 |
| 20260905104558 | 73 | 79 | 0.0 | 0.0 | 0.00 | 0.00 | 0.00 | 93 | 1013.2 |
| 20260905104059 | 73 | 79 | 0.0 | 0.0 | 0.00 | 0.00 | 0.00 | 93 | 1013.2 |
| 20260905103558 | 73 | 79 | 0.0 | 0.0 | 0.00 | 0.00 | 0.00 | 93 | 1013.1 |
| 20260905103105 | 73 | 79 | 0.0 | 0.0 | 0.00 | 0.00 | 0.00 | 93 | 1013.0 |
| 20260905102557 | 73 | 79 | 0.0 | 0.0 | 0.00 | 0.00 | 0.00 | 93 | 1012.9 |
| 20260905102057 | 73 | 79 | 0.0 | 0.0 | 0.00 | 0.00 | 0.00 | 93 | 1013.0 |